Year,Month,Day,Hour,Minute,Value (Times are PST for temperature in C)
2010,09,03,00,00,14.90
2010,09,03,00,01,14.90
2010,09,03,00,02,14.90
2010,09,03,00,03,14.90
2010,09,03,00,04,14.90
2010,09,03,00,05,14.90
2010,09,03,00,06,14.90
2010,09,03,00,07,14.90
2010,09,03,00,08,14.90
2010,09,03,00,09,14.90
2010,09,03,00,10,14.90
2010,09,03,00,11,14.90
2010,09,03,00,12,14.90
2010,09,03,00,13,14.90
2010,09,03,00,14,14.90
2010,09,03,00,15,14.90
2010,09,03,00,16,14.90
2010,09,03,00,17,14.90
2010,09,03,00,18,14.90
2010,09,03,00,19,14.90
2010,09,03,00,20,14.90
2010,09,03,00,21,14.80
2010,09,03,00,22,14.80
2010,09,03,00,23,14.80
2010,09,03,00,24,14.80
2010,09,03,00,25,14.80
2010,09,03,00,26,14.80
2010,09,03,00,27,14.80
2010,09,03,00,28,14.70
2010,09,03,00,29,14.70
2010,09,03,00,30,14.70
2010,09,03,00,31,14.70
2010,09,03,00,32,14.70
2010,09,03,00,33,14.70
2010,09,03,00,34,14.70
2010,09,03,00,35,14.70
2010,09,03,00,36,14.70
2010,09,03,00,37,14.60
2010,09,03,00,38,14.60
2010,09,03,00,39,14.60
2010,09,03,00,40,14.60
2010,09,03,00,41,14.60
2010,09,03,00,42,14.60
2010,09,03,00,43,14.60
2010,09,03,00,44,14.60
2010,09,03,00,45,14.60
2010,09,03,00,46,14.60
2010,09,03,00,47,14.50
2010,09,03,00,48,14.50
2010,09,03,00,49,14.50
2010,09,03,00,50,14.50
2010,09,03,00,51,14.50
2010,09,03,00,52,14.50
2010,09,03,00,53,14.50
2010,09,03,00,54,14.50
2010,09,03,00,55,14.50
2010,09,03,00,56,14.50
2010,09,03,00,57,14.50
2010,09,03,00,58,14.50
2010,09,03,00,59,14.50
2010,09,03,01,00,14.50
2010,09,03,01,01,14.40
2010,09,03,01,02,14.40
2010,09,03,01,03,14.40
2010,09,03,01,04,14.40
2010,09,03,01,05,14.40
2010,09,03,01,06,14.40
2010,09,03,01,07,14.40
2010,09,03,01,08,14.30
2010,09,03,01,09,14.30
2010,09,03,01,10,14.30
2010,09,03,01,11,14.30
2010,09,03,01,12,14.30
2010,09,03,01,13,14.30
2010,09,03,01,14,14.30
2010,09,03,01,15,14.20
2010,09,03,01,16,14.20
2010,09,03,01,17,14.20
2010,09,03,01,18,14.20
2010,09,03,01,19,14.20
2010,09,03,01,20,14.20
2010,09,03,01,21,14.10
2010,09,03,01,22,14.10
2010,09,03,01,23,14.10
2010,09,03,01,24,14.10
2010,09,03,01,25,14.10
2010,09,03,01,26,14.10
2010,09,03,01,27,14.10
2010,09,03,01,28,14.10
2010,09,03,01,29,14.00
2010,09,03,01,30,14.00
2010,09,03,01,31,14.00
2010,09,03,01,32,14.00
2010,09,03,01,33,14.00
2010,09,03,01,34,14.00
2010,09,03,01,35,14.00
2010,09,03,01,36,14.00
2010,09,03,01,37,14.00
2010,09,03,01,38,13.90
2010,09,03,01,39,13.90
2010,09,03,01,40,13.90
2010,09,03,01,41,13.90
2010,09,03,01,42,13.90
2010,09,03,01,43,13.90
2010,09,03,01,44,13.90
2010,09,03,01,45,13.90
2010,09,03,01,46,13.90
2010,09,03,01,47,13.90
2010,09,03,01,48,13.90
2010,09,03,01,49,13.90
2010,09,03,01,50,13.90
2010,09,03,01,51,13.90
2010,09,03,01,52,13.80
2010,09,03,01,53,13.90
2010,09,03,01,54,13.90
2010,09,03,01,55,13.90
2010,09,03,01,56,13.80
2010,09,03,01,57,13.90
2010,09,03,01,58,13.90
2010,09,03,01,59,13.90
2010,09,03,02,00,13.90
2010,09,03,02,01,13.90
2010,09,03,02,02,13.90
2010,09,03,02,03,13.90
2010,09,03,02,04,13.90
2010,09,03,02,05,13.90
2010,09,03,02,06,13.90
2010,09,03,02,07,13.80
2010,09,03,02,08,13.80
2010,09,03,02,09,13.80
2010,09,03,02,10,13.80
2010,09,03,02,11,13.80
2010,09,03,02,12,13.80
2010,09,03,02,13,13.80
2010,09,03,02,14,13.80
2010,09,03,02,15,13.80
2010,09,03,02,16,13.80
2010,09,03,02,17,13.80
2010,09,03,02,18,13.80
2010,09,03,02,19,13.80
2010,09,03,02,20,13.70
2010,09,03,02,21,13.70
2010,09,03,02,22,13.70
2010,09,03,02,23,13.70
2010,09,03,02,24,13.70
2010,09,03,02,25,13.70
2010,09,03,02,26,13.70
2010,09,03,02,27,13.70
2010,09,03,02,28,13.70
2010,09,03,02,29,13.70
2010,09,03,02,30,13.70
2010,09,03,02,31,13.70
2010,09,03,02,32,13.70
2010,09,03,02,33,13.70
2010,09,03,02,34,13.70
2010,09,03,02,35,13.70
2010,09,03,02,36,13.70
2010,09,03,02,37,13.80
2010,09,03,02,38,13.80
2010,09,03,02,39,13.80
2010,09,03,02,40,13.80
2010,09,03,02,41,13.80
2010,09,03,02,42,13.80
2010,09,03,02,43,13.80
2010,09,03,02,44,13.80
2010,09,03,02,45,13.80
2010,09,03,02,46,13.80
2010,09,03,02,47,13.80
2010,09,03,02,48,13.80
2010,09,03,02,49,13.80
2010,09,03,02,50,13.80
2010,09,03,02,51,13.70
2010,09,03,02,52,13.70
2010,09,03,02,53,13.70
2010,09,03,02,54,13.70
2010,09,03,02,55,13.70
2010,09,03,02,56,13.70
2010,09,03,02,57,13.70
2010,09,03,02,58,13.70
2010,09,03,02,59,13.70
2010,09,03,03,00,13.70
2010,09,03,03,01,13.70
2010,09,03,03,06,13.60
2010,09,03,03,07,13.60
2010,09,03,03,08,13.60
2010,09,03,03,09,13.60
2010,09,03,03,10,13.60
2010,09,03,03,11,13.60
2010,09,03,03,12,13.60
2010,09,03,03,13,13.60
2010,09,03,03,14,13.60
2010,09,03,03,15,13.60
2010,09,03,03,16,13.50
2010,09,03,03,17,13.50
2010,09,03,03,18,13.50
2010,09,03,03,19,13.50
2010,09,03,03,20,13.40
2010,09,03,03,21,13.40
2010,09,03,03,22,13.40
2010,09,03,03,23,13.40
2010,09,03,03,24,13.40
2010,09,03,03,25,13.40
2010,09,03,03,26,13.40
2010,09,03,03,27,13.40
2010,09,03,03,28,13.40
2010,09,03,03,29,13.40
2010,09,03,03,30,13.30
2010,09,03,03,31,13.30
2010,09,03,03,32,13.30
2010,09,03,03,33,13.30
2010,09,03,03,34,13.30
2010,09,03,03,35,13.30
2010,09,03,03,36,13.30
2010,09,03,03,37,13.30
2010,09,03,03,38,13.30
2010,09,03,03,39,13.30
2010,09,03,03,40,13.30
2010,09,03,03,41,13.30
2010,09,03,03,42,13.30
2010,09,03,03,43,13.30
2010,09,03,03,44,13.30
2010,09,03,03,45,13.30
2010,09,03,03,46,13.30
2010,09,03,03,47,13.30
2010,09,03,03,48,13.30
2010,09,03,03,49,13.30
2010,09,03,03,50,13.30
2010,09,03,03,51,13.30
2010,09,03,03,52,13.30
2010,09,03,03,53,13.30
2010,09,03,03,54,13.30
2010,09,03,03,55,13.30
2010,09,03,03,56,13.20
2010,09,03,03,57,13.20
2010,09,03,03,58,13.20
2010,09,03,03,59,13.20
2010,09,03,04,00,13.20
2010,09,03,04,01,13.20
2010,09,03,04,02,13.10
2010,09,03,04,03,13.10
2010,09,03,04,04,13.10
2010,09,03,04,05,13.10
2010,09,03,04,06,13.10
2010,09,03,04,07,13.10
2010,09,03,04,08,13.10
2010,09,03,04,09,13.10
2010,09,03,04,10,13.00
2010,09,03,04,11,13.10
2010,09,03,04,12,13.00
2010,09,03,04,13,13.00
2010,09,03,04,14,13.00
2010,09,03,04,15,13.00
2010,09,03,04,16,13.00
2010,09,03,04,17,12.90
2010,09,03,04,18,12.90
2010,09,03,04,19,12.90
2010,09,03,04,20,12.90
2010,09,03,04,21,12.90
2010,09,03,04,22,12.90
2010,09,03,04,23,12.90
2010,09,03,04,24,12.90
2010,09,03,04,25,12.90
2010,09,03,04,26,12.90
2010,09,03,04,27,12.80
2010,09,03,04,28,12.80
2010,09,03,04,29,12.90
2010,09,03,04,30,12.90
2010,09,03,04,31,12.90
2010,09,03,04,32,12.90
2010,09,03,04,33,12.90
2010,09,03,04,34,12.90
2010,09,03,04,35,12.90
2010,09,03,04,36,12.90
2010,09,03,04,37,13.00
2010,09,03,04,38,13.00
2010,09,03,04,39,13.00
2010,09,03,04,40,13.00
2010,09,03,04,41,13.10
2010,09,03,04,42,13.10
2010,09,03,04,43,13.10
2010,09,03,04,44,13.10
2010,09,03,04,45,13.10
2010,09,03,04,46,13.00
2010,09,03,04,47,13.00
2010,09,03,04,48,13.00
2010,09,03,04,49,13.00
2010,09,03,04,50,13.00
2010,09,03,04,51,12.90
2010,09,03,04,52,12.90
2010,09,03,04,53,12.90
2010,09,03,04,54,12.90
2010,09,03,04,55,12.90
2010,09,03,04,56,12.90
2010,09,03,04,57,12.80
2010,09,03,04,58,12.80
2010,09,03,04,59,12.80
2010,09,03,05,00,12.80
2010,09,03,05,01,12.80
2010,09,03,05,02,12.80
2010,09,03,05,03,12.80
2010,09,03,05,04,12.80
2010,09,03,05,05,12.80
2010,09,03,05,06,12.80
2010,09,03,05,07,12.80
2010,09,03,05,08,12.70
2010,09,03,05,09,12.70
2010,09,03,05,10,12.70
2010,09,03,05,11,12.70
2010,09,03,05,12,12.70
2010,09,03,05,13,12.70
2010,09,03,05,14,12.70
2010,09,03,05,15,12.70
2010,09,03,05,16,12.60
2010,09,03,05,17,12.60
2010,09,03,05,18,12.60
2010,09,03,05,19,12.60
2010,09,03,05,20,12.60
2010,09,03,05,21,12.50
2010,09,03,05,22,12.50
2010,09,03,05,23,12.50
2010,09,03,05,24,12.40
2010,09,03,05,25,12.40
2010,09,03,05,26,12.40
2010,09,03,05,27,12.40
2010,09,03,05,28,12.40
2010,09,03,05,29,12.40
2010,09,03,05,30,12.30
2010,09,03,05,31,12.30
2010,09,03,05,32,12.30
2010,09,03,05,33,12.30
2010,09,03,05,34,12.30
2010,09,03,05,35,12.30
2010,09,03,05,36,12.30
2010,09,03,05,37,12.30
2010,09,03,05,38,12.20
2010,09,03,05,39,12.20
2010,09,03,05,40,12.20
2010,09,03,05,41,12.20
2010,09,03,05,42,12.20
2010,09,03,05,43,12.20
2010,09,03,05,44,12.20
2010,09,03,05,45,12.20
2010,09,03,05,46,12.10
2010,09,03,05,47,12.10
2010,09,03,05,48,12.10
2010,09,03,05,49,12.10
2010,09,03,05,50,12.10
2010,09,03,05,51,12.10
2010,09,03,05,52,12.10
2010,09,03,05,53,12.10
2010,09,03,05,54,12.00
2010,09,03,05,55,12.00
2010,09,03,05,56,12.00
2010,09,03,05,57,12.00
2010,09,03,05,58,11.90
2010,09,03,05,59,11.90
2010,09,03,06,00,11.90
2010,09,03,06,01,11.90
2010,09,03,06,02,11.90
2010,09,03,06,03,11.80
2010,09,03,06,04,11.80
2010,09,03,06,05,11.80
2010,09,03,06,06,11.80
2010,09,03,06,07,11.80
2010,09,03,06,08,11.80
2010,09,03,06,09,11.70
2010,09,03,06,10,11.70
2010,09,03,06,11,11.70
2010,09,03,06,12,11.70
2010,09,03,06,13,11.70
2010,09,03,06,14,11.70
2010,09,03,06,15,11.70
2010,09,03,06,16,11.70
2010,09,03,06,17,11.70
2010,09,03,06,18,11.70
2010,09,03,06,19,11.70
2010,09,03,06,20,11.70
2010,09,03,06,21,11.70
2010,09,03,06,22,11.70
2010,09,03,06,23,11.70
2010,09,03,06,24,11.70
2010,09,03,06,25,11.70
2010,09,03,06,26,11.60
2010,09,03,06,27,11.60
2010,09,03,06,28,11.60
2010,09,03,06,29,11.60
2010,09,03,06,30,11.60
2010,09,03,06,31,11.60
2010,09,03,06,32,11.60
2010,09,03,06,33,11.60
2010,09,03,06,34,11.60
2010,09,03,06,35,11.60
2010,09,03,06,36,11.60
2010,09,03,06,37,11.60
2010,09,03,06,38,11.60
2010,09,03,06,39,11.60
2010,09,03,06,40,11.60
2010,09,03,06,41,11.60
2010,09,03,06,42,11.60
2010,09,03,06,43,11.50
2010,09,03,06,44,11.50
2010,09,03,06,45,11.50
2010,09,03,06,46,11.50
2010,09,03,06,47,11.50
2010,09,03,06,48,11.50
2010,09,03,06,49,11.50
2010,09,03,06,50,11.50
2010,09,03,06,51,11.50
2010,09,03,06,52,11.50
2010,09,03,06,53,11.50
2010,09,03,06,54,11.50
2010,09,03,06,55,11.50
2010,09,03,06,56,11.50
2010,09,03,06,57,11.50
2010,09,03,06,58,11.50
2010,09,03,06,59,11.40
2010,09,03,07,00,11.40
2010,09,03,07,01,11.40
2010,09,03,07,02,11.40
2010,09,03,07,03,11.40
2010,09,03,07,04,11.40
2010,09,03,07,05,11.40
2010,09,03,07,06,11.40
2010,09,03,07,07,11.40
2010,09,03,07,08,11.30
2010,09,03,07,09,11.30
2010,09,03,07,10,11.30
2010,09,03,07,11,11.30
2010,09,03,07,12,11.30
2010,09,03,07,13,11.30
2010,09,03,07,14,11.30
2010,09,03,07,15,11.30
2010,09,03,07,16,11.30
2010,09,03,07,17,11.30
2010,09,03,07,18,11.30
2010,09,03,07,19,11.30
2010,09,03,07,20,11.30
2010,09,03,07,21,11.30
2010,09,03,07,22,11.30
2010,09,03,07,23,11.30
2010,09,03,07,24,11.30
2010,09,03,07,25,11.30
2010,09,03,07,26,11.30
2010,09,03,07,27,11.30
2010,09,03,07,28,11.30
2010,09,03,07,29,11.30
2010,09,03,07,30,11.30
2010,09,03,07,31,11.30
2010,09,03,07,32,11.30
2010,09,03,07,33,11.30
2010,09,03,07,34,11.30
2010,09,03,07,35,11.30
2010,09,03,07,36,11.30
2010,09,03,07,37,11.30
2010,09,03,07,38,11.30
2010,09,03,07,39,11.30
2010,09,03,07,40,11.30
2010,09,03,07,41,11.30
2010,09,03,07,42,11.30
2010,09,03,07,43,11.30
2010,09,03,07,44,11.30
2010,09,03,07,45,11.30
2010,09,03,07,46,11.30
2010,09,03,07,47,11.30
2010,09,03,07,48,11.30
2010,09,03,07,49,11.30
2010,09,03,07,50,11.40
2010,09,03,07,51,11.40
2010,09,03,07,52,11.40
2010,09,03,07,53,11.40
2010,09,03,07,54,11.50
2010,09,03,07,55,11.50
2010,09,03,07,56,11.60
2010,09,03,07,57,11.60
2010,09,03,07,58,11.60
2010,09,03,07,59,11.70
2010,09,03,08,00,11.70
2010,09,03,08,01,11.80
2010,09,03,08,02,11.80
2010,09,03,08,03,11.80
2010,09,03,08,04,11.90
2010,09,03,08,05,11.90
2010,09,03,08,06,12.00
2010,09,03,08,07,12.10
2010,09,03,08,08,12.10
2010,09,03,08,09,12.20
2010,09,03,08,10,12.20
2010,09,03,08,11,12.20
2010,09,03,08,12,12.30
2010,09,03,08,13,12.30
2010,09,03,08,14,12.40
2010,09,03,08,15,12.40
2010,09,03,08,16,12.50
2010,09,03,08,17,12.60
2010,09,03,08,18,12.70
2010,09,03,08,19,12.80
2010,09,03,08,20,13.00
2010,09,03,08,21,13.20
2010,09,03,08,22,13.30
2010,09,03,08,23,13.50
2010,09,03,08,24,13.70
2010,09,03,08,25,13.80
2010,09,03,08,26,14.00
2010,09,03,08,27,14.10
2010,09,03,08,28,14.30
2010,09,03,08,29,14.50
2010,09,03,08,30,14.70
2010,09,03,08,31,14.90
2010,09,03,08,32,15.10
2010,09,03,08,33,15.30
2010,09,03,08,34,15.50
2010,09,03,08,35,15.60
2010,09,03,08,36,15.80
2010,09,03,08,37,16.00
2010,09,03,08,38,16.20
2010,09,03,08,39,16.40
2010,09,03,08,40,16.50
2010,09,03,08,41,16.70
2010,09,03,08,42,16.80
2010,09,03,08,43,17.00
2010,09,03,08,44,17.10
2010,09,03,08,45,17.20
2010,09,03,08,46,17.40
2010,09,03,08,47,17.60
2010,09,03,08,48,17.70
2010,09,03,08,49,17.80
2010,09,03,08,50,17.90
2010,09,03,08,51,18.10
2010,09,03,08,52,18.20
2010,09,03,08,53,18.30
2010,09,03,08,54,18.40
2010,09,03,08,55,18.60
2010,09,03,08,56,18.70
2010,09,03,08,57,18.90
2010,09,03,08,58,19.00
2010,09,03,08,59,19.00
2010,09,03,09,00,19.10
2010,09,03,09,01,19.20
2010,09,03,09,02,19.20
2010,09,03,09,03,19.30
2010,09,03,09,04,19.30
2010,09,03,09,05,19.20
2010,09,03,09,06,19.20
2010,09,03,09,07,19.20
2010,09,03,09,08,19.20
2010,09,03,09,09,19.30
2010,09,03,09,10,19.40
2010,09,03,09,11,19.50
2010,09,03,09,12,19.50
2010,09,03,09,13,19.60
2010,09,03,09,14,19.60
2010,09,03,09,15,19.70
2010,09,03,09,16,19.70
2010,09,03,09,17,19.70
2010,09,03,09,18,19.80
2010,09,03,09,19,19.90
2010,09,03,09,20,20.00
2010,09,03,09,21,20.00
2010,09,03,09,22,20.10
2010,09,03,09,23,20.10
2010,09,03,09,24,20.10
2010,09,03,09,25,20.10
2010,09,03,09,26,20.10
2010,09,03,09,27,20.20
2010,09,03,09,28,20.20
2010,09,03,09,29,20.30
2010,09,03,09,30,20.30
2010,09,03,09,31,20.40
2010,09,03,09,32,20.40
2010,09,03,09,33,20.40
2010,09,03,09,34,20.40
2010,09,03,09,35,20.40
2010,09,03,09,36,20.40
2010,09,03,09,37,20.40
2010,09,03,09,38,20.40
2010,09,03,09,39,20.40
2010,09,03,09,40,20.40
2010,09,03,09,41,20.40
2010,09,03,09,42,20.50
2010,09,03,09,43,20.50
2010,09,03,09,44,20.50
2010,09,03,09,45,20.40
2010,09,03,09,46,20.40
2010,09,03,09,47,20.40
2010,09,03,09,48,20.40
2010,09,03,09,49,20.40
2010,09,03,09,50,20.50
2010,09,03,09,51,20.50
2010,09,03,09,52,20.50
2010,09,03,09,53,20.60
2010,09,03,09,54,20.60
2010,09,03,09,55,20.60
2010,09,03,09,56,20.60
2010,09,03,09,57,20.60
2010,09,03,09,58,20.50
2010,09,03,09,59,20.50
2010,09,03,10,00,20.50
2010,09,03,10,01,20.50
2010,09,03,10,02,20.50
2010,09,03,10,03,20.50
2010,09,03,10,04,20.50
2010,09,03,10,05,20.50
2010,09,03,10,06,20.40
2010,09,03,10,07,20.40
2010,09,03,10,08,20.40
2010,09,03,10,09,20.30
2010,09,03,10,10,20.20
2010,09,03,10,11,20.20
2010,09,03,10,12,20.20
2010,09,03,10,13,20.20
2010,09,03,10,14,20.20
2010,09,03,10,15,20.20
2010,09,03,10,16,20.20
2010,09,03,10,17,20.20
2010,09,03,10,18,20.20
2010,09,03,10,19,20.30
2010,09,03,10,20,20.30
2010,09,03,10,21,20.30
2010,09,03,10,22,20.30
2010,09,03,10,23,20.30
2010,09,03,10,24,20.30
2010,09,03,10,25,20.40
2010,09,03,10,26,20.40
2010,09,03,10,27,20.40
2010,09,03,10,28,20.40
2010,09,03,10,29,20.40
2010,09,03,10,30,20.40
2010,09,03,10,31,20.30
2010,09,03,10,32,20.30
2010,09,03,10,33,20.30
2010,09,03,10,34,20.40
2010,09,03,10,35,20.30
2010,09,03,10,36,20.40
2010,09,03,10,37,20.40
2010,09,03,10,38,20.40
2010,09,03,10,39,20.50
2010,09,03,10,40,20.50
2010,09,03,10,41,20.60
2010,09,03,10,42,20.60
2010,09,03,10,43,20.70
2010,09,03,10,44,20.70
2010,09,03,10,45,20.70
2010,09,03,10,46,20.70
2010,09,03,10,47,20.70
2010,09,03,10,48,20.80
2010,09,03,10,49,20.80
2010,09,03,10,50,20.80
2010,09,03,10,51,20.80
2010,09,03,10,52,20.70
2010,09,03,10,53,20.60
2010,09,03,10,54,20.50
2010,09,03,10,55,20.40
2010,09,03,10,56,20.40
2010,09,03,10,57,20.40
2010,09,03,10,58,20.40
2010,09,03,10,59,20.40
2010,09,03,11,00,20.40
2010,09,03,11,01,20.50
2010,09,03,11,02,20.50
2010,09,03,11,03,20.40
2010,09,03,11,04,20.40
2010,09,03,11,05,20.40
2010,09,03,11,06,20.50
2010,09,03,11,07,20.50
2010,09,03,11,08,20.60
2010,09,03,11,09,20.70
2010,09,03,11,10,20.70
2010,09,03,11,11,20.80
2010,09,03,11,12,20.90
2010,09,03,11,13,20.90
2010,09,03,11,14,20.90
2010,09,03,11,15,20.80
2010,09,03,11,16,20.80
2010,09,03,11,17,20.80
2010,09,03,11,18,20.80
2010,09,03,11,19,20.80
2010,09,03,11,20,20.90
2010,09,03,11,21,20.90
2010,09,03,11,22,20.90
2010,09,03,11,23,20.90
2010,09,03,11,24,20.90
2010,09,03,11,25,21.00
2010,09,03,11,26,21.00
2010,09,03,11,27,21.00
2010,09,03,11,28,21.00
2010,09,03,11,29,21.00
2010,09,03,11,30,21.10
2010,09,03,11,31,21.20
2010,09,03,11,32,21.20
2010,09,03,11,33,21.20
2010,09,03,11,34,21.20
2010,09,03,11,35,21.30
2010,09,03,11,36,21.30
2010,09,03,11,37,21.40
2010,09,03,11,38,21.30
2010,09,03,11,39,21.20
2010,09,03,11,40,21.20
2010,09,03,11,41,21.10
2010,09,03,11,42,21.10
2010,09,03,11,43,21.10
2010,09,03,11,44,21.20
2010,09,03,11,45,21.20
2010,09,03,11,46,21.30
2010,09,03,11,47,21.30
2010,09,03,11,48,21.40
2010,09,03,11,49,21.40
2010,09,03,11,50,21.40
2010,09,03,11,51,21.30
2010,09,03,11,52,21.30
2010,09,03,11,53,21.30
2010,09,03,11,54,21.40
2010,09,03,11,55,21.40
2010,09,03,11,56,21.40
2010,09,03,11,57,21.40
2010,09,03,11,58,21.40
2010,09,03,11,59,21.40
2010,09,03,12,00,21.40
2010,09,03,12,01,21.40
2010,09,03,12,02,21.40
2010,09,03,12,03,21.30
2010,09,03,12,04,21.30
2010,09,03,12,05,21.30
2010,09,03,12,06,21.20
2010,09,03,12,07,21.10
2010,09,03,12,08,21.10
2010,09,03,12,09,21.10
2010,09,03,12,10,21.20
2010,09,03,12,11,21.30
2010,09,03,12,12,21.30
2010,09,03,12,13,21.40
2010,09,03,12,14,21.40
2010,09,03,12,15,21.40
2010,09,03,12,16,21.30
2010,09,03,12,17,21.20
2010,09,03,12,18,21.20
2010,09,03,12,19,21.30
2010,09,03,12,20,21.40
2010,09,03,12,21,21.50
2010,09,03,12,22,21.70
2010,09,03,12,23,21.80
2010,09,03,12,24,21.90
2010,09,03,12,25,21.90
2010,09,03,12,26,21.90
2010,09,03,12,27,22.00
2010,09,03,12,28,22.00
2010,09,03,12,29,22.10
2010,09,03,12,30,22.20
2010,09,03,12,31,22.30
2010,09,03,12,32,22.40
2010,09,03,12,33,22.40
2010,09,03,12,34,22.40
2010,09,03,12,35,22.40
2010,09,03,12,36,22.40
2010,09,03,12,37,22.30
2010,09,03,12,38,22.40
2010,09,03,12,39,22.30
2010,09,03,12,40,22.30
2010,09,03,12,41,22.30
2010,09,03,12,42,22.30
2010,09,03,12,43,22.30
2010,09,03,12,44,22.40
2010,09,03,12,45,22.40
2010,09,03,12,46,22.50
2010,09,03,12,47,22.60
2010,09,03,12,48,22.60
2010,09,03,12,49,22.60
2010,09,03,12,50,22.60
2010,09,03,12,51,22.60
2010,09,03,12,52,22.60
2010,09,03,12,53,22.60
2010,09,03,12,54,22.60
2010,09,03,12,55,22.60
2010,09,03,12,56,22.60
2010,09,03,12,57,22.60
2010,09,03,12,58,22.70
2010,09,03,12,59,22.70
2010,09,03,13,00,22.80
2010,09,03,13,01,22.80
2010,09,03,13,02,22.80
2010,09,03,13,03,22.90
2010,09,03,13,04,23.00
2010,09,03,13,05,23.10
2010,09,03,13,06,23.10
2010,09,03,13,07,23.00
2010,09,03,13,08,22.80
2010,09,03,13,09,22.70
2010,09,03,13,10,22.60
2010,09,03,13,11,22.60
2010,09,03,13,12,22.60
2010,09,03,13,13,22.60
2010,09,03,13,14,22.60
2010,09,03,13,15,22.60
2010,09,03,13,16,22.50
2010,09,03,13,17,22.40
2010,09,03,13,18,22.40
2010,09,03,13,19,22.40
2010,09,03,13,20,22.40
2010,09,03,13,21,22.40
2010,09,03,13,22,22.40
2010,09,03,13,23,22.40
2010,09,03,13,24,22.40
2010,09,03,13,25,22.40
2010,09,03,13,26,22.40
2010,09,03,13,27,22.40
2010,09,03,13,28,22.40
2010,09,03,13,29,22.40
2010,09,03,13,30,22.40
2010,09,03,13,31,22.40
2010,09,03,13,32,22.50
2010,09,03,13,33,22.50
2010,09,03,13,34,22.50
2010,09,03,13,35,22.40
2010,09,03,13,36,22.40
2010,09,03,13,37,22.50
2010,09,03,13,38,22.50
2010,09,03,13,39,22.60
2010,09,03,13,40,22.60
2010,09,03,13,41,22.60
2010,09,03,13,42,22.50
2010,09,03,13,43,22.50
2010,09,03,13,44,22.40
2010,09,03,13,45,22.40
2010,09,03,13,46,22.50
2010,09,03,13,47,22.50
2010,09,03,13,48,22.60
2010,09,03,13,49,22.60
2010,09,03,13,50,22.60
2010,09,03,13,51,22.60
2010,09,03,13,52,22.60
2010,09,03,13,53,22.60
2010,09,03,13,54,22.60
2010,09,03,13,55,22.60
2010,09,03,13,56,22.60
2010,09,03,13,57,22.70
2010,09,03,13,58,22.70
2010,09,03,13,59,22.60
2010,09,03,14,00,22.50
2010,09,03,14,01,22.50
2010,09,03,14,02,22.50
2010,09,03,14,03,22.60
2010,09,03,14,04,22.60
2010,09,03,14,05,22.60
2010,09,03,14,06,22.70
2010,09,03,14,07,22.70
2010,09,03,14,08,22.70
2010,09,03,14,09,22.60
2010,09,03,14,10,22.50
2010,09,03,14,11,22.40
2010,09,03,14,12,22.20
2010,09,03,14,13,22.00
2010,09,03,14,14,21.80
2010,09,03,14,15,21.70
2010,09,03,14,16,21.70
2010,09,03,14,17,21.70
2010,09,03,14,18,21.70
2010,09,03,14,19,21.80
2010,09,03,14,20,21.80
2010,09,03,14,21,21.90
2010,09,03,14,22,22.00
2010,09,03,14,23,22.00
2010,09,03,14,24,22.00
2010,09,03,14,25,21.90
2010,09,03,14,26,21.80
2010,09,03,14,27,21.80
2010,09,03,14,28,21.70
2010,09,03,14,29,21.60
2010,09,03,14,30,21.60
2010,09,03,14,31,21.60
2010,09,03,14,32,21.60
2010,09,03,14,33,21.50
2010,09,03,14,34,21.50
2010,09,03,14,35,21.40
2010,09,03,14,36,21.40
2010,09,03,14,37,21.30
2010,09,03,14,38,21.30
2010,09,03,14,39,21.30
2010,09,03,14,40,21.30
2010,09,03,14,41,21.30
2010,09,03,14,42,21.40
2010,09,03,14,43,21.50
2010,09,03,14,44,21.60
2010,09,03,14,45,21.70
2010,09,03,14,46,21.80
2010,09,03,14,47,21.90
2010,09,03,14,48,22.00
2010,09,03,14,49,22.10
2010,09,03,14,50,22.00
2010,09,03,14,51,22.00
2010,09,03,14,52,22.00
2010,09,03,14,53,22.00
2010,09,03,14,54,21.90
2010,09,03,14,55,21.90
2010,09,03,14,56,21.90
2010,09,03,14,57,21.90
2010,09,03,14,58,22.00
2010,09,03,14,59,22.20
2010,09,03,15,00,22.20
2010,09,03,15,01,22.30
2010,09,03,15,02,22.30
2010,09,03,15,03,22.40
2010,09,03,15,04,22.40
2010,09,03,15,05,22.30
2010,09,03,15,06,22.20
2010,09,03,15,07,22.10
2010,09,03,15,08,22.00
2010,09,03,15,09,21.80
2010,09,03,15,10,21.80
2010,09,03,15,11,21.80
2010,09,03,15,12,21.90
2010,09,03,15,13,21.90
2010,09,03,15,14,21.90
2010,09,03,15,15,21.90
2010,09,03,15,16,21.90
2010,09,03,15,17,21.80
2010,09,03,15,18,21.80
2010,09,03,15,19,21.80
2010,09,03,15,20,21.90
2010,09,03,15,21,22.00
2010,09,03,15,22,22.10
2010,09,03,15,23,22.20
2010,09,03,15,24,22.30
2010,09,03,15,25,22.40
2010,09,03,15,26,22.30
2010,09,03,15,27,22.30
2010,09,03,15,28,22.30
2010,09,03,15,29,22.30
2010,09,03,15,30,22.30
2010,09,03,15,31,22.30
2010,09,03,15,32,22.10
2010,09,03,15,33,21.90
2010,09,03,15,34,21.70
2010,09,03,15,35,21.40
2010,09,03,15,36,21.20
2010,09,03,15,37,21.10
2010,09,03,15,38,21.10
2010,09,03,15,39,21.20
2010,09,03,15,40,21.30
2010,09,03,15,41,21.40
2010,09,03,15,42,21.50
2010,09,03,15,43,21.60
2010,09,03,15,44,21.80
2010,09,03,15,45,21.80
2010,09,03,15,46,21.90
2010,09,03,15,47,22.00
2010,09,03,15,48,22.00
2010,09,03,15,49,22.00
2010,09,03,15,50,21.90
2010,09,03,15,51,21.90
2010,09,03,15,52,21.90
2010,09,03,15,53,21.90
2010,09,03,15,54,21.80
2010,09,03,15,55,21.80
2010,09,03,15,56,21.70
2010,09,03,15,57,21.60
2010,09,03,15,58,21.60
2010,09,03,15,59,21.60
2010,09,03,16,00,21.70
2010,09,03,16,01,21.80
2010,09,03,16,02,21.90
2010,09,03,16,03,21.90
2010,09,03,16,04,22.00
2010,09,03,16,05,22.00
2010,09,03,16,06,22.10
2010,09,03,16,07,22.10
2010,09,03,16,08,22.10
2010,09,03,16,09,22.20
2010,09,03,16,10,22.10
2010,09,03,16,11,22.00
2010,09,03,16,12,22.00
2010,09,03,16,13,21.90
2010,09,03,16,14,21.80
2010,09,03,16,15,21.70
2010,09,03,16,16,21.70
2010,09,03,16,17,21.70
2010,09,03,16,18,21.70
2010,09,03,16,19,21.70
2010,09,03,16,20,21.80
2010,09,03,16,21,21.90
2010,09,03,16,22,22.00
2010,09,03,16,23,22.10
2010,09,03,16,24,22.10
2010,09,03,16,25,22.20
2010,09,03,16,26,22.30
2010,09,03,16,27,22.30
2010,09,03,16,28,22.10
2010,09,03,16,29,22.00
2010,09,03,16,30,21.90
2010,09,03,16,31,21.80
2010,09,03,16,32,21.70
2010,09,03,16,33,21.70
2010,09,03,16,34,21.70
2010,09,03,16,35,21.70
2010,09,03,16,36,21.80
2010,09,03,16,37,21.90
2010,09,03,16,38,21.90
2010,09,03,16,39,22.00
2010,09,03,16,40,22.00
2010,09,03,16,41,21.90
2010,09,03,16,42,21.90
2010,09,03,16,43,21.90
2010,09,03,16,44,21.80
2010,09,03,16,45,21.80
2010,09,03,16,46,21.80
2010,09,03,16,47,21.80
2010,09,03,16,48,21.80
2010,09,03,16,49,21.80
2010,09,03,16,50,21.70
2010,09,03,16,51,21.60
2010,09,03,16,52,21.60
2010,09,03,16,53,21.60
2010,09,03,16,54,21.60
2010,09,03,16,55,21.60
2010,09,03,16,56,21.50
2010,09,03,16,57,21.50
2010,09,03,16,58,21.40
2010,09,03,16,59,21.40
2010,09,03,17,00,21.30
2010,09,03,17,01,21.30
2010,09,03,17,02,21.20
2010,09,03,17,03,21.10
2010,09,03,17,04,21.00
2010,09,03,17,05,20.90
2010,09,03,17,06,20.80
2010,09,03,17,07,20.80
2010,09,03,17,08,20.60
2010,09,03,17,09,20.50
2010,09,03,17,10,20.30
2010,09,03,17,11,20.20
2010,09,03,17,12,20.10
2010,09,03,17,13,20.10
2010,09,03,17,14,20.00
2010,09,03,17,15,20.00
2010,09,03,17,16,19.90
2010,09,03,17,17,19.90
2010,09,03,17,18,19.90
2010,09,03,17,19,19.90
2010,09,03,17,20,19.90
2010,09,03,17,21,19.80
2010,09,03,17,22,19.80
2010,09,03,17,23,19.80